Weather History for Buffalo, WY

Change the Weather History Date:

Friday, March 8, 2013

  Actual Average Record
Temperature  
Mean Temperature 38 °F 32 °F  
Max Temperature 46 °F 44 °F 55 °F (2001)
Min Temperature 29 °F 21 °F -5 °F (2002)
Degree Days  
Heating Degree Days 27 33  
Month to date heating degree days 245 270  
Since 1 July heating degree days 5194 5510  
Cooling Degree Days 0 0  
Month to date cooling degree days 0 0  
Year to date cooling degree days 0 0  
Moisture  
Dew Point 25 °F    
Average Humidity 60    
Maximum Humidity 75    
Minimum Humidity 45    
Precipitation  
Precipitation 0.00 in 0.02 in 0.17 in (2005)
Month to date precipitation T 0.17  
Year to date precipitation 0.61 0.94  
Sea Level Pressure  
Sea Level Pressure 29.91 in    
Wind  
Wind Speed 11 mph (SE)    
Max Wind Speed 22 mph    
Max Gust Speed 26 mph    
Visibility 10 miles    
Events      
T = Trace of Precipitation, MM = Missing Value Source: NWS Daily Summary

Daily Weather History Graph

Daily Weather History Graph

Search for Another Location

Airport:

Trip Planner

Search our weather history database for the weather conditions in past years. The results will help you decide how hot, cold, wet, or windy it might be!

Date:

Astronomy

Mar. 08, 2013 Rise Set
Actual Time 6:31 AM MST 6:04 PM MST
Civil Twilight 6:02 AM MST 6:33 PM MST
Nautical Twilight 5:28 AM MST 7:07 PM MST
Astronomical Twilight 4:54 AM MST 7:41 PM MST
Moon 4:23 AM MST (3/8) 2:57 PM MST (3/8)
Length of Visible Light 12h 31m
Length of Day
11h 33m
Waning Crescent, 11% of the Moon is Illuminated
Mar 8
Waning Crescent
Mar 11
New
Mar 19
First Quarter
Mar 27
Full
Apr 2
Last Quarter

Hourly Weather History & Observations

Time (MST) Temp. Windchill Dew Point Humidity Pressure Visibility Wind Dir Wind Speed Gust Speed Precip Events Conditions
12:53 AM 32.0 °F 28.7 °F 21.9 °F 66% 30.03 in 10.0 mi South 3.5 mph - N/A   Clear
1:53 AM 32.0 °F 24.8 °F 21.9 °F 66% 30.01 in 10.0 mi SE 8.1 mph - N/A   Mostly Cloudy
2:53 AM 32.0 °F 24.2 °F 23.0 °F 69% 29.97 in 10.0 mi SE 9.2 mph - N/A   Overcast
3:53 AM 30.9 °F 23.5 °F 23.0 °F 72% 29.97 in 10.0 mi SSE 8.1 mph - N/A   Mostly Cloudy
4:53 AM 30.0 °F 25.2 °F 21.9 °F 72% 29.99 in 10.0 mi ESE 4.6 mph - N/A   Clear
5:53 AM 30.0 °F 20.5 °F 21.9 °F 72% 29.99 in 10.0 mi SSE 11.5 mph - N/A   Clear
6:53 AM 28.9 °F 18.6 °F 21.9 °F 75% 29.98 in 10.0 mi SSE 12.7 mph - N/A   Clear
7:53 AM 32.0 °F 21.2 °F 24.1 °F 73% 29.97 in 10.0 mi SSE 16.1 mph - N/A   Clear
8:53 AM 33.1 °F 22.2 °F 24.1 °F 70% 29.96 in 10.0 mi SSE 17.3 mph - N/A   Mostly Cloudy
9:53 AM 33.1 °F 23.4 °F 24.1 °F 70% 29.95 in 10.0 mi SSE 13.8 mph - N/A   Mostly Cloudy
10:53 AM 36.0 °F 26.3 °F 26.1 °F 67% 29.91 in 10.0 mi SSE 16.1 mph - N/A   Mostly Cloudy
11:53 AM 39.0 °F 30.3 °F 26.1 °F 60% 29.88 in 10.0 mi SSE 16.1 mph 24.2 mph N/A   Clear
12:53 PM 41.0 °F 34.3 °F 26.1 °F 55% 29.85 in 10.0 mi SE 11.5 mph - N/A   Clear
1:53 PM 43.0 °F 39.5 °F 28.0 °F 56% 29.82 in 10.0 mi SE 5.8 mph - N/A   Clear
2:53 PM 43.0 °F - 27.0 °F 53% 29.80 in 10.0 mi Calm Calm - N/A   Clear
3:53 PM 46.0 °F 43.1 °F 27.0 °F 47% 29.80 in 10.0 mi NNE 5.8 mph - N/A   Clear
4:53 PM 39.0 °F 31.8 °F 28.0 °F 65% 29.83 in 10.0 mi NW 11.5 mph 20.7 mph N/A   Clear
5:53 PM 36.0 °F 28.5 °F 27.0 °F 70% 29.85 in 10.0 mi NNW 10.4 mph - N/A   Clear
6:53 PM 35.1 °F 26.4 °F 26.1 °F 70% 29.87 in 10.0 mi NW 12.7 mph - N/A   Clear
7:53 PM 34.0 °F 25.0 °F 26.1 °F 73% 29.87 in 10.0 mi NW 12.7 mph - N/A   Clear
8:53 PM 34.0 °F 25.5 °F 26.1 °F 73% 29.88 in 10.0 mi NNW 11.5 mph - N/A   Clear
9:53 PM 35.1 °F 27.4 °F 25.0 °F 67% 29.88 in 10.0 mi NW 10.4 mph - N/A   Partly Cloudy
10:53 PM 34.0 °F 25.5 °F 26.1 °F 73% 29.85 in 10.0 mi North 11.5 mph - N/A   Clear
11:53 PM 33.1 °F 23.0 °F 26.1 °F 75% 29.85 in 10.0 mi North 15.0 mph 23.0 mph N/A   Scattered Clouds